K5BOU Weather Reports


Display with metric or nautical units.
time (UTC)temp
F
wind
direction
speed
MPH
gust
MPH
rain 1hr
in
rain 24hr
in
rain mn
in
humidity
%
barometer
mb
20260904032142 81 170 0.0 0.0 0.00 0.18 0.18 99 1011.5
20260904031642 81 174 0.0 0.0 0.00 0.18 0.18 99 1011.3
20260904031138 81 159 1.0 3.0 0.00 0.18 0.18 99 1011.5
20260904030633 81 182 0.0 2.0 0.00 0.18 0.18 99 1011.4
20260904030128 81 175 0.0 1.0 0.00 0.18 0.18 99 1011.6
20260904025624 81 172 0.0 2.0 0.00 0.18 0.18 99 1011.5
20260904025119 81 155 2.0 2.0 0.00 0.18 0.18 99 1011.3
20260904024614 81 170 1.0 1.0 0.00 0.18 0.18 99 1011.3
20260904024110 81 143 1.0 2.0 0.00 0.18 0.18 99 1011.3
20260904023606 81 119 1.0 2.0 0.00 0.18 0.18 99 1011.2
20260904023102 81 183 0.0 2.0 0.00 0.18 0.18 99 1011.1
20260904022556 81 185 1.0 3.0 0.00 0.18 0.18 99 1011.0
20260904022053 81 160 0.0 1.0 0.00 0.18 0.18 99 1011.0
20260904021548 81 174 0.0 2.0 0.00 0.18 0.18 99 1011.1
20260904021043 81 176 0.0 3.0 0.00 0.18 0.18 99 1010.8
20260904020538 82 130 1.0 3.0 0.00 0.18 0.18 99 1011.0
20260904020033 81 144 2.0 3.0 0.00 0.18 0.18 99 1010.7
20260904015527 81 185 0.0 1.0 0.00 0.18 0.18 99 1010.8
20260904015026 81 181 1.0 2.0 0.00 0.18 0.18 99 1010.7
20260904014520 81 165 0.0 3.0 0.00 0.18 0.18 99 1010.6
20260904014016 81 166 0.0 1.0 0.00 0.18 0.18 99 1010.4
20260904013512 81 162 1.0 3.0 0.00 0.18 0.18 99 1010.4
20260904013009 81 167 0.0 1.0 0.00 0.18 0.18 99 1010.5
20260904012508 81 173 0.0 2.0 0.00 0.18 0.18 99 1010.5
20260904012003 81 173 0.0 0.0 0.00 0.18 0.18 99 1010.5
20260904011457 81 175 0.0 0.0 0.00 0.18 0.18 99 1010.4
20260904010952 81 177 0.0 0.0 0.00 0.18 0.18 98 1010.5
20260904010449 81 167 0.0 0.0 0.00 0.18 0.18 98 1010.5
20260904005949 81 168 0.0 0.0 0.00 0.18 0.18 98 1010.2
20260904005445 81 167 0.0 0.0 0.00 0.18 0.18 97 1010.3
20260904004939 81 185 0.0 0.0 0.00 0.18 0.18 97 1010.5
20260904004436 81 159 0.0 0.0 0.00 0.18 0.18 97 1010.3
20260904003936 81 169 0.0 0.0 0.00 0.18 0.18 97 1010.4
20260904003432 81 159 0.0 0.0 0.00 0.18 0.18 97 1010.5
20260904002926 82 167 0.0 0.0 0.00 0.18 0.18 97 1010.4
20260904002423 82 163 0.0 1.0 0.00 0.18 0.18 97 1010.5
20260904001921 82 168 0.0 0.0 0.00 0.18 0.18 97 1010.3
20260904001417 82 164 0.0 0.0 0.00 0.18 0.18 97 1010.3
20260904000912 82 180 0.0 0.0 0.00 0.18 0.18 98 1010.5
20260904000412 82 120 0.0 0.0 0.00 0.18 0.18 98 1010.3
20260903235907 81 173 0.0 1.0 0.00 0.18 0.18 99 1010.4
20260903235403 81 143 0.0 0.0 0.00 0.18 0.18 99 1010.5
20260903234902 81 154 0.0 0.0 0.00 0.18 0.18 99 1010.4
20260903234358 81 168 0.0 0.0 0.00 0.18 0.18 99 1010.5
20260903233854 81 169 0.0 0.0 0.00 0.18 0.18 99 1010.6
20260903233350 80 164 0.0 0.0 0.00 0.18 0.18 99 1010.4
20260903232849 80 171 0.0 0.0 0.00 0.18 0.18 99 1010.3
20260903232345 80 162 0.0 0.0 0.00 0.18 0.18 99 1010.4
20260903231844 80 178 0.0 0.0 0.00 0.18 0.18 99 1010.4
20260903231340 80 179 0.0 1.0 0.00 0.18 0.18 99 1010.5
20260903230835 80 163 0.0 0.0 0.00 0.18 0.18 99 1010.6
20260903230330 80 141 0.0 0.0 0.00 0.18 0.18 99 1010.6
20260903225826 80 134 0.0 0.0 0.00 0.18 0.18 99 1010.6
20260903225322 79 157 0.0 0.0 0.00 0.18 0.18 99 1010.7
20260903224818 79 140 0.0 1.0 0.00 0.18 0.18 99 1010.7
20260903224314 79 166 0.0 1.0 0.00 0.18 0.18 99 1010.9
20260903223810 79 161 0.0 0.0 0.00 0.18 0.18 99 1010.7
20260903223308 79 172 0.0 1.0 0.00 0.18 0.18 99 1010.7
20260903222803 79 164 0.0 0.0 0.00 0.18 0.18 99 1010.6
20260903222305 79 152 0.0 0.0 0.00 0.18 0.18 99 1010.6
20260903221757 79 159 0.0 2.0 0.00 0.18 0.18 99 1010.8
20260903221256 78 129 0.0 1.0 0.00 0.18 0.18 99 1010.4
20260903220755 78 163 0.0 0.0 0.00 0.18 0.18 99 1010.6
20260903220249 78 168 0.0 0.0 0.00 0.18 0.18 99 1010.7
20260903215747 78 134 0.0 2.0 0.00 0.18 0.18 99 1010.8
20260903215244 78 153 0.0 3.0 0.00 0.18 0.18 99 1010.8
20260903214741 79 175 0.0 1.0 0.00 0.18 0.18 99 1010.9
20260903214239 79 165 0.0 5.0 0.07 0.18 0.18 99 1011.3
20260903213732 78 177 0.0 3.0 0.07 0.18 0.18 99 1011.4
20260903213228 79 43 3.0 3.0 0.05 0.17 0.17 99 1011.3
20260903212724 79 164 0.0 1.0 0.17 0.17 0.17 99 1011.5
20260903212221 78 147 0.0 2.0 0.24 0.15 0.15 99 1011.6
20260903211719 78 164 0.0 2.0 0.24 0.13 0.13 99 1011.5
20260903211216 78 104 1.0 1.0 0.19 0.11 0.11 99 1011.8
20260903210712 78 169 0.0 0.0 0.12 0.09 0.09 99 1011.5
20260903210207 78 196 0.0 0.0 0.05 0.08 0.08 99 1011.6
20260903205706 78 201 0.0 0.0 0.07 0.07 0.07 99 1011.9
20260903205206 78 201 0.0 0.0 0.07 0.07 0.07 99 1011.6
20260903204701 78 211 0.0 1.0 0.05 0.06 0.06 99 1011.8
20260903204158 78 255 2.0 2.0 0.12 0.06 0.06 99 1011.5
20260903203653 78 178 0.0 0.0 0.12 0.05 0.05 99 1011.5
20260903203148 78 196 0.0 0.0 0.17 0.04 0.04 99 1011.7
20260903202643 78 211 0.0 1.0 0.05 0.02 0.02 99 1011.9
20260903202138 78 195 0.0 1.0 0.00 0.01 0.01 99 1012.0
20260903201632 78 219 1.0 2.0 0.00 0.01 0.01 99 1012.0
20260903201132 78 194 1.0 5.0 0.00 0.01 0.01 99 1012.0
20260903200628 78 246 4.0 6.0 0.00 0.01 0.01 98 1012.1
20260903200122 79 218 2.0 3.0 0.00 0.01 0.01 97 1012.0
20260903195618 79 214 3.0 3.0 0.00 0.01 0.01 96 1012.0
20260903195114 79 297 1.0 3.0 0.00 0.01 0.01 96 1011.8
20260903194609 79 220 2.0 3.0 0.00 0.01 0.01 95 1011.9
20260903194109 79 244 2.0 3.0 0.00 0.01 0.01 95 1011.7
20260903193605 80 224 0.0 3.0 0.00 0.01 0.01 94 1011.9
20260903193100 80 283 3.0 7.0 0.00 0.01 0.01 93 1012.0
20260903192557 81 298 3.0 8.0 0.00 0.01 0.01 91 1012.4
20260903192051 81 297 4.0 7.0 0.00 0.01 0.01 88 1012.3
20260903191543 81 244 2.0 5.0 0.00 0.01 0.01 87 1012.4
20260903191043 82 224 3.0 5.0 0.00 0.01 0.01 86 1012.4
20260903190542 82 187 0.0 1.0 0.00 0.01 0.01 86 1012.3
20260903190042 83 211 1.0 7.0 0.00 0.01 0.01 87 1012.5
20260903185537 84 226 2.0 7.0 0.00 0.01 0.01 87 1012.4
20260903185032 85 233 2.0 5.0 0.00 0.01 0.01 86 1012.2
20260903184529 85 169 2.0 3.0 0.00 0.01 0.01 85 1011.9
20260903184024 85 172 3.0 9.0 0.00 0.01 0.01 85 1011.8
20260903183523 86 171 5.0 10.0 0.00 0.01 0.01 84 1012.0
20260903183018 87 302 2.0 5.0 0.00 0.01 0.01 83 1011.8
20260903182516 87 121 1.0 3.0 0.00 0.01 0.01 83 1011.8
20260903182013 87 176 0.0 2.0 0.00 0.01 0.01 82 1011.9
20260903181506 87 171 0.0 3.0 0.00 0.01 0.01 81 1011.9
20260903181006 87 171 1.0 3.0 0.00 0.01 0.01 81 1011.7
20260903180501 87 106 5.0 7.0 0.00 0.01 0.01 80 1011.7
20260903180000 88 187 2.0 6.0 0.00 0.01 0.01 81 1012.0
20260903175454 89 166 1.0 8.0 0.00 0.01 0.01 82 1012.0
20260903174953 91 165 4.0 6.0 0.00 0.01 0.01 79 1012.0
20260903174449 90 203 0.0 2.0 0.00 0.01 0.01 77 1012.2
20260903173948 91 189 0.0 0.0 0.00 0.01 0.01 77 1012.0
20260903173444 91 200 1.0 2.0 0.00 0.01 0.01 76 1012.0
20260903172939 91 196 0.0 1.0 0.00 0.01 0.01 77 1011.9
20260903172434 91 217 5.0 7.0 0.00 0.01 0.01 76 1012.0
20260903171930 92 218 2.0 3.0 0.00 0.01 0.01 78 1011.9
20260903171425 91 180 0.0 2.0 0.00 0.01 0.01 79 1012.4
20260903170925 91 241 2.0 7.0 0.00 0.01 0.01 80 1012.5
20260903170419 91 215 3.0 5.0 0.00 0.01 0.01 80 1012.2
20260903165918 91 253 6.0 8.0 0.00 0.01 0.01 81 1012.4
20260903165413 90 276 4.0 7.0 0.00 0.01 0.01 81 1012.7
20260903164907 91 218 3.0 7.0 0.00 0.01 0.01 81 1012.7
20260903164402 89 206 2.0 5.0 0.00 0.01 0.01 83 1012.7
20260903163901 90 181 2.0 3.0 0.00 0.01 0.01 83 1012.8
20260903163358 89 213 5.0 6.0 0.00 0.01 0.01 85 1012.6
20260903162854 89 216 5.0 6.0 0.00 0.01 0.01 83 1012.5
20260903162350 88 207 1.0 2.0 0.00 0.01 0.01 86 1012.6
20260903161846 87 218 1.0 3.0 0.00 0.01 0.01 87 1012.6
20260903161341 87 215 2.0 5.0 0.00 0.01 0.01 87 1012.5
20260903160837 88 214 4.0 8.0 0.00 0.01 0.01 87 1012.6
20260903160335 88 199 3.0 7.0 0.00 0.01 0.01 87 1012.5
20260903155834 87 196 2.0 2.0 0.00 0.01 0.01 87 1012.5
20260903155329 87 159 2.0 3.0 0.00 0.01 0.01 88 1012.6
20260903154825 87 221 1.0 3.0 0.00 0.01 0.01 89 1012.6
20260903154321 87 219 2.0 5.0 0.00 0.01 0.01 89 1012.6
20260903153816 86 200 0.0 5.0 0.00 0.01 0.01 89 1012.8
20260903153312 86 184 2.0 3.0 0.00 0.01 0.01 90 1012.5
20260903152808 86 186 1.0 3.0 0.00 0.01 0.01 91 1012.6
20260903152306 86 183 1.0 2.0 0.00 0.01 0.01 91 1012.6
20260903151758 87 195 1.0 2.0 0.00 0.01 0.01 92 1013.0
20260903151254 86 184 2.0 2.0 0.00 0.01 0.01 91 1012.9
20260903150754 86 197 0.0 5.0 0.00 0.01 0.01 93 1012.4
20260903150248 86 180 0.0 2.0 0.00 0.01 0.01 94 1012.7
20260903145744 85 185 1.0 2.0 0.00 0.01 0.01 94 1012.7
20260903145239 85 192 0.0 0.0 0.00 0.01 0.01 96 1012.7
20260903144737 84 187 0.0 1.0 0.00 0.01 0.01 96 1012.8
20260903144233 84 180 0.0 1.0 0.00 0.01 0.01 97 1012.8
20260903143729 84 165 1.0 1.0 0.00 0.01 0.01 97 1013.0
20260903143225 84 155 0.0 0.0 0.00 0.01 0.01 98 1012.8
20260903142720 83 171 0.0 0.0 0.00 0.01 0.01 98 1012.9
20260903142217 83 185 0.0 0.0 0.00 0.01 0.01 98 1012.9
20260903141712 83 167 1.0 2.0 0.00 0.01 0.01 98 1013.0
20260903141207 83 184 0.0 0.0 0.00 0.01 0.01 99 1012.7
20260903140703 82 184 0.0 1.0 0.00 0.01 0.01 99 1013.0
20260903140158 82 190 0.0 0.0 0.00 0.01 0.01 99 1012.9
20260903135653 81 186 0.0 0.0 0.00 0.01 0.01 99 1012.6
20260903135148 81 190 0.0 0.0 0.00 0.01 0.01 99 1012.8
20260903134647 81 188 0.0 0.0 0.00 0.01 0.01 99 1012.9
20260903134143 81 188 0.0 0.0 0.00 0.01 0.01 99 1013.0
20260903133641 81 167 0.0 0.0 0.00 0.01 0.01 99 1012.9
20260903133137 80 180 0.0 1.0 0.00 0.01 0.01 99 1013.0
20260903132636 80 171 0.0 0.0 0.00 0.01 0.01 99 1012.7
20260903132131 80 196 0.0 0.0 0.00 0.01 0.01 99 1012.9
20260903131626 80 183 0.0 0.0 0.00 0.01 0.01 99 1012.9
20260903131125 80 185 0.0 0.0 0.00 0.01 0.01 99 1012.9
20260903130620 80 168 0.0 0.0 0.00 0.01 0.01 99 1012.7
20260903130115 80 186 0.0 0.0 0.00 0.01 0.01 99 1012.5
20260903125613 80 171 0.0 0.0 0.00 0.01 0.01 99 1012.6
20260903125108 80 181 0.0 0.0 0.00 0.01 0.01 99 1012.5
20260903124608 80 203 0.0 0.0 0.00 0.01 0.01 99 1012.3
20260903124108 80 211 0.0 0.0 0.00 0.01 0.01 99 1012.4
20260903123602 80 197 0.0 0.0 0.00 0.01 0.01 99 1012.3
20260903123102 80 196 0.0 0.0 0.00 0.01 0.01 99 1012.2
20260903122601 80 184 0.0 0.0 0.00 0.01 0.01 99 1012.3
20260903122055 80 185 0.0 0.0 0.00 0.01 0.01 99 1012.0
20260903121549 80 181 0.0 0.0 0.00 0.01 0.01 99 1012.1
20260903121045 80 174 0.0 0.0 0.00 0.01 0.01 99 1012.2
20260903120544 80 169 0.0 0.0 0.00 0.01 0.01 99 1012.1
20260903120039 80 176 0.0 0.0 0.07 0.01 0.01 99 1012.2
20260903115537 80 182 0.0 0.0 0.07 0.01 0.01 99 1012.2
20260903115032 80 174 0.0 0.0 0.00 0.00 0.00 99 1012.2
20260903114527 80 201 0.0 0.0 0.00 0.00 0.00 99 1012.1
20260903114023 80 203 0.0 0.0 0.00 0.00 0.00 99 1012.1
20260903113518 80 215 0.0 0.0 0.00 0.00 0.00 99 1012.0
20260903113014 80 210 1.0 2.0 0.00 0.00 0.00 99 1012.2
20260903112510 80 204 1.0 3.0 0.00 0.00 0.00 99 1012.2
20260903112010 80 208 0.0 0.0 0.00 0.00 0.00 99 1012.3
20260903111503 80 174 0.0 3.0 0.00 0.00 0.00 99 1012.1
20260903111000 81 203 0.0 0.0 0.00 0.00 0.00 99 1012.3
20260903110455 81 210 0.0 0.0 0.00 0.00 0.00 99 1012.3
20260903105949 81 221 2.0 2.0 0.00 0.00 0.00 99 1011.9
20260903105445 81 209 2.0 5.0 0.00 0.00 0.00 98 1012.1
20260903104944 81 220 1.0 5.0 0.00 0.00 0.00 98 1012.0
20260903104444 82 194 2.0 3.0 0.00 0.00 0.00 98 1011.8
20260903103941 82 204 2.0 5.0 0.00 0.00 0.00 97 1011.7
20260903103436 82 214 2.0 2.0 0.00 0.00 0.00 97 1011.9
20260903102932 82 185 0.0 1.0 0.00 0.00 0.00 97 1012.0
20260903102427 82 191 0.0 1.0 0.00 0.00 0.00 97 1011.8
20260903101925 82 201 1.0 3.0 0.00 0.00 0.00 97 1012.0
20260903101421 82 189 0.0 0.0 0.00 0.00 0.00 97 1011.9
20260903100916 82 195 0.0 1.0 0.00 0.00 0.00 97 1011.9
20260903100411 82 190 0.0 2.0 0.00 0.00 0.00 96 1012.0
20260903095908 82 204 0.0 2.0 0.00 0.00 0.00 96 1011.7
20260903095403 82 198 1.0 3.0 0.00 0.00 0.00 96 1011.8
20260903094857 82 177 2.0 3.0 0.00 0.00 0.00 96 1011.9
20260903094352 82 179 4.0 5.0 0.00 0.00 0.00 96 1011.7
20260903093848 82 174 1.0 3.0 0.00 0.00 0.00 96 1011.8
20260903093343 82 179 1.0 3.0 0.00 0.00 0.00 96 1011.7
20260903092838 82 189 1.0 3.0 0.00 0.00 0.00 96 1011.8
20260903092332 82 186 1.0 3.0 0.00 0.00 0.00 96 1011.7
20260903091831 82 222 1.0 6.0 0.00 0.00 0.00 96 1011.8
20260903091330 82 205 2.0 3.0 0.00 0.00 0.00 96 1011.8
20260903090826 82 196 1.0 3.0 0.00 0.00 0.00 96 1012.0
20260903090321 82 199 1.0 2.0 0.00 0.00 0.00 96 1011.7
20260903085819 82 198 2.0 2.0 0.00 0.00 0.00 96 1011.9
20260903085313 82 207 3.0 3.0 0.00 0.00 0.00 96 1011.9
20260903084812 82 199 1.0 5.0 0.00 0.00 0.00 96 1012.0
20260903084311 82 192 0.0 5.0 0.00 0.00 0.00 96 1011.7
20260903083807 82 225 5.0 7.0 0.00 0.00 0.00 96 1011.9
20260903083302 82 172 0.0 3.0 0.00 0.00 0.00 96 1011.7
20260903082801 82 167 3.0 5.0 0.00 0.00 0.00 97 1011.7
20260903082257 82 182 1.0 2.0 0.00 0.00 0.00 97 1011.5
20260903081757 82 181 0.0 1.0 0.00 0.00 0.00 96 1011.7
20260903081252 82 183 2.0 2.0 0.00 0.00 0.00 96 1011.8
20260903080749 82 184 0.0 2.0 0.00 0.00 0.00 96 1011.8
20260903080246 82 185 0.0 1.0 0.00 0.00 0.00 96 1011.6
20260903075745 82 186 0.0 0.0 0.00 0.00 0.00 96 1011.6
20260903075240 82 171 1.0 2.0 0.00 0.00 0.00 96 1011.6
20260903074739 82 193 1.0 1.0 0.00 0.00 0.00 96 1011.6
20260903074235 82 173 1.0 1.0 0.00 0.00 0.00 96 1011.7
20260903073730 82 164 3.0 5.0 0.00 0.00 0.00 96 1011.7
20260903073225 82 180 0.0 3.0 0.00 0.00 0.00 96 1011.6
20260903072721 82 183 1.0 5.0 0.00 0.00 0.00 96 1011.7
20260903072217 82 184 0.0 5.0 0.00 0.00 0.00 96 1011.8
20260903071713 82 182 1.0 2.0 0.00 0.00 0.00 96 1011.8
20260903071209 82 180 1.0 3.0 0.00 0.00 0.00 95 1011.9
20260903070708 82 151 1.0 3.0 0.00 0.00 0.00 95 1012.0
20260903070204 83 147 1.0 2.0 0.00 0.00 0.00 95 1012.0
20260903065659 83 183 0.0 1.0 0.00 0.00 0.00 95 1012.2
20260903065153 83 195 0.0 1.0 0.00 0.00 0.00 95 1012.5
20260903064652 83 157 0.0 2.0 0.00 0.00 0.00 95 1012.5
20260903064148 83 171 1.0 3.0 0.00 0.00 0.00 95 1012.4
20260903063643 83 197 0.0 2.0 0.00 0.00 0.00 95 1012.3
20260903063138 83 177 1.0 2.0 0.00 0.00 0.00 95 1012.2
20260903062634 83 184 1.0 2.0 0.00 0.00 0.00 95 1012.2
20260903062129 83 198 1.0 3.0 0.00 0.00 0.00 95 1012.3
20260903061624 83 179 1.0 2.0 0.00 0.00 0.00 95 1012.4
20260903061124 83 201 0.0 1.0 0.00 0.00 0.00 95 1012.4
20260903060619 83 174 0.0 3.0 0.00 0.00 0.00 95 1012.5
20260903060114 83 188 0.0 2.0 0.00 0.00 0.00 94 1012.6
20260903055612 83 183 0.0 2.0 0.00 0.00 0.00 94 1012.5
20260903055110 83 188 2.0 3.0 0.00 0.00 0.00 94 1012.9
20260903054605 84 185 0.0 2.0 0.00 0.00 0.00 94 1012.8
20260903054101 84 182 1.0 2.0 0.00 0.00 0.00 94 1012.9
20260903053556 84 192 0.0 0.0 0.00 0.00 0.00 94 1012.8
20260903053052 84 184 0.0 1.0 0.00 0.00 0.00 94 1012.7
20260903052548 84 183 0.0 0.0 0.00 0.00 0.00 94 1013.0
20260903052044 84 183 0.0 1.0 0.00 0.00 0.00 94 1013.1
20260903051543 84 181 0.0 0.0 0.00 0.00 0.00 94 1013.3
20260903051039 84 221 2.0 2.0 0.00 0.00 0.00 94 1013.2
20260903050538 84 203 0.0 0.0 0.00 0.00 0.00 94 1013.1
20260903050034 84 196 0.0 0.0 0.00 0.00 0.00 94 1013.0
20260903045533 84 177 0.0 0.0 0.00 0.00 0.00 94 1013.2
20260903045030 84 175 1.0 2.0 0.00 0.00 0.00 94 1013.1
20260903044525 84 181 0.0 0.0 0.00 0.00 0.00 94 1013.2
20260903044021 84 200 3.0 5.0 0.00 0.00 0.00 94 1012.9
20260903043516 84 174 0.0 3.0 0.00 0.00 0.00 94 1012.9
20260903043016 84 178 0.0 5.0 0.00 0.00 0.00 94 1012.8
20260903042516 84 158 3.0 6.0 0.00 0.00 0.00 94 1013.0
20260903042011 84 154 3.0 5.0 0.00 0.00 0.00 94 1012.9
20260903041508 84 181 0.0 2.0 0.00 0.00 0.00 94 1012.8
20260903041003 84 163 2.0 5.0 0.00 0.00 0.00 94 1012.7
20260903040502 84 154 2.0 3.0 0.00 0.00 0.00 94 1012.9
20260903035959 84 154 4.0 8.0 0.00 0.00 0.00 94 1012.6
20260903035454 84 150 1.0 2.0 0.00 0.00 0.00 94 1012.7
20260903034949 84 189 0.0 3.0 0.00 0.00 0.00 94 1012.7
20260903034444 84 177 1.0 2.0 0.00 0.00 0.00 94 1012.5
20260903033944 84 188 1.0 3.0 0.00 0.00 0.00 94 1012.7
20260903033439 84 189 0.0 3.0 0.00 0.00 0.00 94 1012.5
20260903032935 84 158 2.0 3.0 0.00 0.00 0.00 94 1012.4